Flag for Germany Weather past 2 weeks in Lippstadt, North Rhine-Westphalia, Germany

43 °F


Feels Like: 37 °F
Forecast: 35 / 51 °F
Wind: 10 mph from East

Location: Paderborn / Lippstadt

Current Time: Oct 10, 2015 at 8:12:47 PM

Latest Report: Oct 10, 2015 at 7:50 PM

Visibility: 10 mi

Pressure: 30.09 "Hg

Humidity: 81%

Dew point: 37 °F

Location of LippstadtLocation

Historic Weather in Lippstadt — Graph


Lippstadt temperature yesterday

Maximum temperature yesterday: 54 °F (at 12:50 PM)
Minimum temperature yesterday: 50 °F (at 12:20 AM)
Average temperature yesterday: 51 °F

Past Weeks' High & Low Weather Summary

High66 °F (Oct 6, 2:50 PM)100% (Sep 26, 12:20 AM)30.66 "Hg (Sep 26, 12:20 AM)
Low34 °F (Oct 2, 6:20 AM)39% (Oct 2, 5:20 PM)29.65 "Hg (Oct 6, 5:20 AM)
Average52 °F80%30.21 "Hg
* Reported Sep 25 6:20 PM — Oct 10 6:50 PM, Lippstadt, Weather by CustomWeather, © 2015

Note: Actual official high and low records may vary slightly from our data, if they occured in-between our weather recording intervals... More about our weather records


Lippstadt weather history for previous 24 hours

Time TempWeatherWind HumidityBarometerVisibility
6:50 PM
Sat, Oct 10
46 °FSunny.10 mph76%30.09 "Hg10 mi
6:20 PM48 °FSunny.10 mph71%30.09 "Hg10 mi
5:50 PM50 °FSunny.9 mph67%30.09 "Hg10 mi
5:20 PM52 °FSunny.10 mph62%30.09 "Hg10 mi
4:50 PM52 °FPassing clouds.12 mph62%30.09 "HgN/A
4:20 PM52 °FPassing clouds.10 mph62%30.09 "HgN/A
3:50 PM54 °FPassing clouds.10 mph58%30.09 "HgN/A
3:20 PM54 °FPassing clouds.9 mph58%30.09 "HgN/A
2:50 PM54 °FPassing clouds.12 mph63%30.09 "HgN/A
2:20 PM54 °FScattered clouds.10 mph63%30.12 "HgN/A
1:50 PM52 °FPassing clouds.9 mph67%30.12 "HgN/A
1:20 PM52 °FPassing clouds.12 mph62%30.12 "HgN/A
12:50 PM52 °FPassing clouds.9 mph62%30.12 "HgN/A
12:20 PM50 °FPassing clouds.12 mph67%30.15 "HgN/A
11:50 AM50 °FPassing clouds.8 mph71%30.15 "HgN/A
11:20 AM48 °FClear.10 mph76%30.15 "Hg5 mi
10:50 AM48 °FClear.7 mph82%30.15 "Hg5 mi
10:20 AM46 °FClear.9 mph82%30.15 "Hg5 mi
9:50 AM46 °FClear.9 mph87%30.15 "Hg4 mi
9:20 AM46 °FPassing clouds.8 mph93%30.15 "Hg4 mi
8:50 AM46 °FFog.10 mph93%30.15 "Hg2 mi
8:20 AM46 °FFog.6 mph100%30.15 "Hg2 mi
7:50 AM46 °FFog.5 mph100%30.15 "Hg2 mi
7:20 AM46 °FFog.5 mph100%30.15 "Hg2 mi
6:50 AM46 °FDrizzle. Fog.5 mph100%30.15 "Hg1 mi
6:20 AM46 °FFog.6 mph100%30.15 "Hg1 mi
5:50 AM46 °FFog.7 mph100%30.15 "Hg1 mi
5:20 AM46 °FFog.7 mph100%30.15 "Hg1 mi
4:50 AM48 °FFog.6 mph94%30.15 "Hg1 mi
4:20 AM48 °FFog.3 mph100%30.15 "Hg3 mi
3:50 AM48 °FFog.5 mph100%30.15 "Hg2 mi
3:20 AM48 °FFog.5 mph100%30.15 "Hg3 mi
2:50 AM48 °FFog.5 mph100%30.15 "Hg3 mi
2:20 AM48 °FLow clouds.5 mph100%30.15 "Hg3 mi
1:50 AM50 °FPartly cloudy.6 mph94%30.15 "Hg4 mi
1:20 AM50 °FPartly cloudy.7 mph94%30.15 "Hg4 mi
12:50 AM50 °FPassing clouds.5 mph100%30.15 "Hg4 mi
12:20 AM50 °FPassing clouds.5 mph100%30.15 "Hg4 mi
11:50 PM
Fri, Oct 9
50 °FPartly cloudy.6 mph100%30.18 "HgN/A
10:50 PM50 °FLight rain. Partly cloudy.3 mph100%30.18 "HgN/A
10:20 PM50 °FLight rain. Passing clouds.3 mph100%30.18 "Hg6 mi
9:50 PM50 °FLight rain. Passing clouds.5 mph100%30.18 "Hg6 mi
9:20 PM52 °FLight rain. Passing clouds.5 mph94%30.18 "Hg4 mi
8:50 PM52 °FPartly cloudy.3 mph100%30.15 "Hg4 mi
8:20 PM52 °FPartly cloudy.5 mph100%30.15 "HgN/A
Weather by CustomWeather, © 2015

See weather overviewHow to use our weather pages